Theta_e
302 302 302 302 302 302 302 302 302 303 303 303 303 303 304 304 304 305 306 307 307 307 308 311 312 311 311 312 315 317 321 321 316 318 321 331 333 324 325 325 329 333 332 329 334 350 351
302 302 302 301 301 301 301 302 302 302 302 302 302 303 303 303 304 304 305 305 308 308 308 311 312 310 309 311 317 316 317 317 317 316 320 327 326 324 323 325 329 328 331 340 343 351 351
301 301 301 301 301 301 301 301 301 301 301 302 302 303 303 303 304 305 305 305 307 309 311 313 313 310 308 315 317 316 317 318 317 317 319 324 324 324 323 326 327 327 341 343 348 352 352
301 301 301 300 300 300 301 301 301 301 301 302 302 302 303 304 304 304 305 305 307 310 315 318 319 313 310 317 317 317 319 319 319 319 322 320 321 324 323 324 325 326 341 344 346 351 351
300 300 300 300 300 300 301 301 301 301 302 302 302 302 302 303 303 304 305 306 310 314 316 316 316 312 313 315 316 317 317 317 319 319 320 322 323 323 323 325 329 326 340 344 344 350 351
300 300 300 300 300 300 301 301 301 302 302 302 302 302 302 302 303 304 305 307 311 312 315 316 314 313 315 317 318 317 317 316 315 316 317 324 323 325 324 325 333 330 334 343 344 346 349
300 300 300 300 300 300 301 301 301 302 302 302 302 302 302 302 302 303 304 309 308 309 308 311 315 314 315 316 317 321 320 315 316 318 324 324 328 325 324 324 330 330 333 340 342 340 348
300 300 300 300 300 300 301 301 302 302 302 302 302 302 302 302 302 303 303 305 302 302 305 309 311 311 314 316 315 318 319 317 319 319 324 324 328 326 324 325 326 328 331 336 340 339 344
300 300 300 300 300 301 301 302 302 303 303 303 302 302 302 302 302 302 303 304 302 302 308 310 311 311 313 314 316 317 317 317 319 320 324 326 326 327 324 325 326 327 330 330 337 339 340
300 300 300 301 301 302 302 303 303 303 304 304 303 303 303 302 302 303 302 302 302 306 312 313 313 313 313 314 316 317 319 319 319 319 323 325 325 327 325 325 327 330 325 328 338 341 342
300 300 300 301 301 302 302 303 304 304 305 305 305 304 303 302 302 304 304 303 303 308 311 316 314 314 314 316 318 318 319 319 320 321 324 324 326 326 326 325 325 328 325 328 336 337 340
299 300 300 300 301 302 303 304 304 304 304 305 305 304 303 303 303 304 304 302 309 311 312 315 315 314 316 317 318 318 319 320 320 322 323 324 323 326 326 326 325 324 326 328 330 330 335
299 299 300 300 301 302 304 304 304 304 304 304 305 304 303 303 303 303 305 303 309 309 312 314 312 312 313 315 318 320 321 322 322 323 324 323 325 325 326 326 325 325 328 331 331 331 337
299 299 300 300 301 303 304 304 303 305 305 305 305 303 303 302 301 301 305 306 305 308 310 312 311 312 314 315 317 320 322 322 323 323 323 323 323 325 326 327 326 326 329 333 336 334 334
299 299 299 300 301 303 304 304 304 305 305 304 303 302 302 302 301 301 305 303 304 308 310 310 311 312 313 313 312 317 322 323 323 322 324 323 322 323 324 327 326 327 326 329 332 328 333
299 299 299 300 301 303 304 303 304 305 305 304 301 302 301 302 302 305 306 304 304 307 310 310 309 312 312 312 312 313 322 323 323 322 323 324 323 324 324 325 325 326 327 326 327 335 335
300 300 300 300 301 301 302 303 305 305 304 302 300 302 302 302 305 305 305 306 307 308 309 309 310 311 311 311 311 312 317 321 323 322 322 323 324 325 325 325 326 324 326 326 329 331 335
300 300 300 300 301 301 302 303 305 305 304 301 300 302 302 301 306 305 308 306 306 309 309 309 309 309 309 311 311 311 313 320 316 321 322 323 324 325 325 326 326 326 326 327 329 331 330
301 300 300 300 301 302 302 303 304 305 303 300 301 301 302 301 304 303 304 306 306 308 309 310 310 309 311 312 312 312 312 314 314 318 324 323 324 326 325 324 323 325 324 325 328 331 333
302 301 300 300 301 302 303 303 304 305 303 300 302 303 302 302 302 303 303 305 308 308 309 309 310 310 311 312 312 311 312 312 312 316 321 323 324 325 325 326 326 326 324 323 326 330 332
303 303 302 300 300 302 303 303 304 304 304 300 301 302 302 303 302 302 303 304 306 310 308 308 309 309 308 312 312 313 312 312 315 315 318 321 325 325 325 325 326 326 324 323 325 326 329
305 304 304 303 301 301 303 303 304 304 304 300 302 302 301 300 301 302 302 305 307 306 306 310 309 309 308 310 311 312 312 313 315 314 317 319 326 325 325 324 325 326 326 325 325 326 326
306 305 305 304 303 302 301 302 303 304 304 302 301 301 300 300 301 302 303 304 303 304 305 307 307 307 308 309 307 307 307 309 311 311 314 319 325 326 326 324 325 326 327 326 326 326 326
306 306 305 304 304 304 303 301 301 304 304 302 302 300 300 301 301 302 302 303 304 304 306 306 306 306 306 305 306 308 307 308 309 311 310 315 323 326 327 326 327 326 326 326 326 326 325
308 308 307 306 305 304 304 304 302 302 304 304 303 301 300 302 301 302 303 303 303 303 306 305 306 305 304 306 311 314 315 315 316 313 312 311 318 327 327 326 326 326 329 327 328 335 336
310 310 309 308 307 306 304 305 304 303 304 303 303 302 300 301 302 302 302 303 304 304 305 304 304 303 305 311 310 316 320 319 321 318 313 312 316 323 325 326 326 329 323 322 327 334 330
310 310 309 309 308 307 306 304 304 305 305 304 305 303 300 301 301 301 303 303 302 303 303 303 303 304 305 311 314 317 316 318 319 322 320 320 320 323 326 328 330 320 320 321 333 332 323
310 310 310 309 308 307 306 305 305 305 305 305 304 305 302 301 301 301 301 302 302 302 304 303 305 304 306 309 311 313 317 317 320 318 321 322 324 324 326 333 334 316 319 329 320 319 319
309 309 309 309 308 307 306 305 306 305 305 305 304 305 304 300 301 301 301 300 302 302 302 303 303 303 304 306 307 310 313 313 317 322 315 320 317 325 327 325 316 314 313 313 314 315 317
Wind_Speed
18 19 19 20 21 21 21 22 22 23 23 23 24 24 25 25 25 25 25 25 25 23 22 22 20 17 15 9 20 7 11 8 9 5 20 17 17 8 5 5 5 8 7 7 13 13 13
20 21 21 21 22 23 23 24 24 25 25 26 27 27 27 27 27 27 26 27 25 24 22 20 19 17 14 8 14 17 26 25 21 11 22 22 13 11 3 4 6 1 5 4 12 13 15
21 21 22 22 23 24 25 26 27 27 28 29 29 29 29 29 29 29 28 27 25 24 21 18 17 17 17 26 10 7 12 16 14 14 18 24 12 8 4 4 6 1 3 8 13 16 6
19 20 21 22 23 23 24 25 26 28 29 30 31 32 31 31 31 31 29 27 24 21 17 15 12 15 13 12 19 26 9 11 14 15 7 17 17 8 4 5 2 3 3 5 8 15 10
18 18 19 21 22 23 23 25 26 27 28 29 31 33 34 34 33 31 27 25 21 17 14 9 4 10 10 11 16 20 27 24 12 14 9 9 10 6 3 5 3 2 5 6 9 16 8
19 19 21 21 21 22 23 24 25 26 27 29 31 33 33 33 33 31 26 22 16 14 9 8 5 5 10 1 1 5 17 23 19 21 10 5 5 5 4 9 11 11 6 9 9 13 12
18 18 18 19 20 23 25 27 29 31 31 31 33 35 33 32 32 21 26 14 9 3 8 8 7 12 13 7 5 5 9 26 14 14 11 12 9 15 18 19 5 10 9 14 10 11 15
19 21 23 24 26 27 27 28 29 30 32 33 34 34 35 32 29 19 22 9 10 11 15 28 30 31 33 21 8 9 11 14 17 14 12 7 18 18 9 10 10 9 10 11 7 11 13
21 22 23 24 25 26 27 28 29 30 30 31 32 34 35 33 20 24 14 9 15 20 7 16 18 15 21 29 15 13 20 11 18 18 23 18 12 15 12 12 13 11 13 9 11 8 3
21 22 23 23 24 26 28 30 31 32 31 31 31 32 33 33 13 24 6 19 16 13 5 6 4 4 8 13 11 32 22 13 8 23 21 14 10 20 16 20 17 17 10 8 11 13 11
21 22 22 22 24 26 28 30 31 33 33 32 31 31 30 27 20 19 21 18 9 2 6 4 2 0 4 13 2 18 34 16 15 14 12 16 19 15 21 25 20 14 12 11 7 7 6
22 22 22 23 24 26 28 30 32 35 36 33 29 29 28 22 17 19 19 13 2 2 8 6 5 6 2 12 4 5 21 18 8 9 14 13 5 17 19 16 18 13 11 6 4 4 9
22 23 23 23 23 25 27 30 34 36 35 33 29 27 22 13 18 17 15 5 3 5 8 7 9 12 13 7 8 7 19 22 16 16 16 14 12 11 17 16 15 11 16 7 7 7 9
23 23 23 22 23 24 26 30 34 35 33 33 29 26 8 13 16 16 11 1 7 5 10 8 11 18 8 6 7 12 15 24 21 15 16 18 17 15 17 16 15 22 19 10 11 9 11
23 23 23 23 22 23 25 29 33 33 33 34 31 24 1 16 17 13 2 4 5 6 3 8 13 9 5 4 7 6 16 25 25 23 14 16 15 19 9 11 17 22 11 8 7 2 9
23 23 24 23 22 22 24 28 31 31 32 34 33 18 6 20 20 7 3 5 5 3 4 2 8 3 6 11 8 9 12 16 27 25 15 11 10 13 24 17 13 15 18 11 4 11 12
23 24 24 23 22 21 23 26 29 30 31 32 24 8 9 19 11 1 4 4 6 11 8 4 5 5 5 10 9 6 3 5 24 21 17 13 11 11 20 18 20 9 15 7 11 7 13
24 24 23 22 22 21 21 23 27 28 30 30 16 4 12 17 1 2 2 6 9 11 10 11 9 10 11 10 8 5 5 5 15 7 18 13 8 9 16 23 14 18 15 20 12 9 7
26 25 23 22 21 20 19 20 24 27 26 26 11 6 9 13 3 5 9 9 7 6 6 5 5 4 2 4 5 8 5 4 13 9 11 14 9 9 10 8 9 24 14 11 10 9 16
26 25 24 22 21 19 18 18 20 24 22 20 7 4 6 6 3 7 10 10 6 7 14 8 7 3 2 6 9 9 8 7 18 9 12 3 9 19 13 17 11 21 21 13 15 12 15
27 26 24 22 21 19 16 16 18 19 20 15 4 2 2 4 5 13 7 9 10 4 6 5 3 8 5 3 3 5 5 8 6 10 5 3 18 12 14 7 17 17 21 19 20 17 15
27 26 25 23 21 18 17 15 16 16 19 10 3 3 2 10 9 9 7 3 5 6 3 5 7 16 11 3 2 4 8 3 3 9 7 6 8 17 17 14 13 17 18 21 22 21 20
28 27 25 23 22 20 18 15 13 15 15 5 4 6 4 7 5 5 4 7 11 15 6 8 12 17 9 2 15 21 19 22 16 7 5 6 2 12 20 14 17 16 17 18 17 17 19
29 27 26 23 22 21 18 16 13 14 15 11 9 5 3 4 4 7 11 16 12 13 5 13 14 13 9 27 26 11 10 17 15 13 12 6 4 3 12 12 19 13 18 14 14 8 12
29 27 25 24 23 21 19 17 15 12 14 13 13 5 4 5 8 13 6 8 15 14 5 8 19 17 25 15 4 3 3 4 9 8 11 12 3 3 6 16 3 6 5 6 12 6 6
27 25 24 23 22 20 18 17 16 12 15 13 16 13 7 6 3 8 8 11 5 5 5 9 19 18 8 3 3 2 3 1 5 6 5 6 4 4 4 17 14 6 11 8 3 10 9
26 25 23 23 21 20 18 16 14 14 15 14 14 11 8 6 9 7 5 3 5 5 5 11 13 7 10 4 1 3 2 5 0 2 3 5 3 5 3 5 5 12 9 4 11 3 12
26 25 23 21 20 18 17 14 14 13 14 13 14 15 13 6 15 11 11 14 11 6 3 8 7 5 6 6 4 3 3 5 2 5 3 1 2 2 1 3 5 21 3 2 6 9 12
25 24 22 21 19 17 15 13 12 11 11 11 13 14 12 15 13 22 27 24 17 14 12 5 6 5 6 4 4 3 3 4 5 2 5 1 4 2 5 5 8 12 16 10 9 12 16
Wind_Direction
28 25 23 23 22 19 17 14 11 7 3 1 357 353 350 346 341 335 330 324 319 314 308 301 293 289 285 260 242 218 205 226 292 193 195 184 175 179 209 208 190 237 288 292 231 171 162
27 26 26 24 20 17 15 14 11 8 4 1 358 353 351 348 343 337 333 325 318 315 309 297 286 278 266 249 261 247 245 254 262 221 196 187 198 211 243 234 227 173 307 1 154 151 146
27 25 25 22 19 17 15 13 10 7 5 2 358 353 350 349 344 340 336 328 321 315 312 298 278 260 252 248 247 230 219 226 230 208 194 197 198 195 194 253 268 294 143 96 149 146 136
25 25 23 21 18 16 14 12 9 5 1 359 355 351 348 348 344 342 338 330 326 319 317 305 274 237 246 263 233 228 183 155 163 173 171 205 211 238 245 301 255 190 187 177 171 171 156
23 22 24 21 16 14 12 9 7 3 359 355 352 349 347 346 344 344 340 334 327 319 321 323 236 205 258 252 246 232 219 212 186 156 156 175 184 201 201 226 186 203 195 187 164 195 157
18 18 17 16 13 10 9 7 4 1 358 353 349 346 345 346 344 347 343 339 320 309 305 296 259 231 248 232 241 211 209 211 208 220 202 173 154 194 184 194 193 188 200 202 185 191 195
12 11 13 13 10 9 8 5 1 356 354 354 353 348 346 347 348 355 3 355 353 321 315 268 268 261 294 251 266 213 185 180 181 162 172 185 190 202 196 201 236 191 200 203 195 177 193
9 8 10 8 6 5 2 359 357 353 350 350 351 348 343 346 349 356 359 47 43 329 300 291 279 260 256 253 309 209 182 159 177 182 155 158 212 207 216 213 224 195 187 209 202 165 204
6 5 6 5 1 357 355 353 353 351 348 348 348 346 340 344 350 358 3 23 346 337 259 290 254 243 243 229 224 222 181 173 186 179 189 198 206 198 207 204 205 202 197 184 214 154 179
1 0 359 358 357 354 354 353 351 349 347 346 346 344 339 342 347 355 8 331 324 333 285 273 238 267 196 192 230 219 200 171 181 196 186 211 186 188 195 212 203 207 194 175 167 180 215
355 355 353 352 354 354 353 352 351 349 345 343 342 340 337 339 333 348 332 329 322 58 302 44 127 106 195 198 355 198 199 195 188 171 182 191 191 184 197 205 195 216 167 180 166 162 184
350 348 348 351 351 351 352 352 351 349 345 341 341 334 335 333 333 340 338 329 176 192 249 319 22 12 346 232 267 120 183 192 177 160 205 189 201 183 203 203 195 140 124 87 88 189 222
344 344 347 347 346 349 351 351 350 349 347 347 346 339 338 334 335 339 340 335 223 208 319 337 337 336 319 261 224 206 188 183 176 175 186 190 177 189 186 188 197 193 168 163 199 207 223
342 344 342 342 345 347 349 349 349 349 348 347 346 343 324 345 342 337 341 163 236 214 233 331 334 317 277 338 234 203 198 195 196 188 171 186 203 183 189 198 185 200 191 193 194 198 209
342 339 337 340 341 344 347 347 348 348 347 348 347 345 253 340 336 336 337 232 235 224 284 320 334 307 295 342 356 283 210 208 194 184 172 188 209 194 182 186 180 187 205 198 195 49 208
340 336 337 340 338 340 342 344 347 348 348 349 348 347 19 349 340 327 214 251 267 283 344 326 264 331 318 336 321 337 194 208 202 201 194 187 195 197 192 190 192 196 180 185 222 194 213
336 334 336 337 334 335 339 341 347 349 349 350 351 347 344 348 342 26 261 284 306 309 306 274 236 279 273 317 320 300 307 20 198 195 208 168 211 166 185 199 183 168 191 215 197 226 212
334 333 335 332 333 335 336 339 347 349 349 353 353 319 339 355 303 41 314 318 314 292 297 261 252 255 271 290 291 285 313 11 359 275 203 184 191 198 192 197 210 200 192 194 196 188 225
333 333 331 333 331 332 335 336 344 349 349 350 334 294 349 14 34 360 327 299 267 282 312 298 270 240 219 251 284 274 280 328 5 355 214 187 204 174 184 181 201 204 187 192 210 179 201
333 332 332 330 327 329 333 334 337 346 348 348 342 326 339 27 30 359 332 302 297 289 279 277 292 325 301 242 236 274 299 315 332 334 320 252 194 211 204 204 171 197 196 203 200 204 194
330 329 329 327 324 326 330 329 325 338 343 347 349 355 1 313 331 324 297 279 282 294 296 301 204 22 332 256 257 254 314 312 293 359 348 265 209 199 205 170 189 182 194 199 213 219 213
327 325 323 322 323 321 319 321 322 326 340 334 319 335 311 295 297 303 299 309 308 347 290 314 349 331 328 256 48 322 345 281 339 328 351 356 202 203 215 197 196 202 196 196 209 213 227
325 322 319 317 317 316 312 310 311 316 320 310 286 285 284 288 291 296 294 331 314 319 282 262 318 323 307 41 314 288 273 264 271 303 314 346 198 183 214 199 216 229 201 198 202 209 208
322 319 318 316 311 309 308 305 302 304 305 306 289 279 265 287 271 287 295 312 308 335 267 297 311 303 301 313 304 271 239 244 252 243 240 304 324 215 191 180 220 232 227 210 209 202 217
323 321 316 315 309 306 304 302 299 293 296 291 275 246 233 276 275 284 267 316 301 307 273 296 302 302 304 304 277 258 179 211 233 220 215 221 296 174 183 195 151 113 44 214 189 161 30
325 322 318 317 313 307 302 298 300 294 287 290 271 257 235 279 264 268 298 304 305 325 346 279 298 314 323 267 256 255 196 314 161 138 80 169 242 309 177 185 206 58 335 342 295 199 21
330 326 322 318 315 310 302 299 292 285 284 288 277 264 232 249 272 247 240 303 314 318 292 293 334 323 357 338 63 27 43 325 88 164 139 141 163 231 216 171 102 350 321 296 184 153 346
341 335 329 323 319 313 310 305 302 287 282 284 282 245 240 250 282 259 255 269 271 258 283 322 309 2 352 30 8 22 3 27 328 31 2 74 172 150 213 174 154 354 58 149 356 349 345
349 342 337 334 330 322 311 310 302 303 281 280 276 247 250 242 271 282 284 275 249 256 285 303 310 302 358 357 4 329 6 358 353 77 2 73 17 56 6 90 85 60 72 41 24 2 354